Location: Unspecified
(38.9820°N, 0.0000°E)
Time: 03:45:55
(UTC+00:00)

OTV 5 (USA 277) - Visible Passes

Search period start: 18 October 2019 00:00
Search period end: 28 October 2019 00:00
Orbit: 310 x 324 km, 54.5° (Epoch: 08 October)

Date Brightness Start Highest point End Pass type
(mag) Time Alt. Az. Time Alt. Az. Time Alt. Az.
18 Oct ? 04:36:01 12° N 04:37:04 13° NNE 04:38:32 10° ENE visible
19 Oct ? 04:50:31 18° N 04:51:51 27° NE 04:54:16 10° E visible
20 Oct ? 05:05:08 27° NW 05:06:28 83° NE 05:09:11 10° SE visible
21 Oct ? 05:19:54 21° W 05:20:56 28° SW 05:23:19 10° SSE visible
22 Oct ? 04:03:51 10° ESE 04:03:51 10° ESE 04:03:55 10° ESE visible
26 Oct ? 18:08:51 10° SSE 18:09:24 12° SE 18:09:24 12° SE visible
27 Oct ? 18:21:54 10° SSW 18:24:11 35° SE 18:24:11 35° SE visible
